FW4701 Weather Reports


Display with metric or nautical units.
time (UTC)temp
F
wind
direction
speed
MPH
gust
MPH
rain 1hr
in
rain 24hr
in
rain mn
in
humidity
%
barometer
mb
20260510045507 49 84 0.0 1.0 0.00 0.00 0.00 73 1012.1
20260510045008 50 84 0.0 1.0 0.00 0.00 0.00 73 1012.1
20260510044532 50 84 0.0 1.0 0.00 0.00 0.00 73 1012.1
20260510044525 73 122 1.0 3.0 0.00 0.02 0.02 56 1009.5
20260510044010 50 84 0.0 0.0 0.00 0.00 0.00 72 1011.9
20260510043510 49 84 0.0 0.0 0.00 0.00 0.00 70 1011.8
20260510043028 50 84 0.0 0.0 0.00 0.00 0.00 70 1011.7
20260510043023 73 119 0.0 4.0 0.00 0.02 0.02 55 1009.6
20260510042506 50 84 0.0 0.0 0.00 0.00 0.00 70 1011.6
20260510042005 50 84 0.0 0.0 0.00 0.00 0.00 70 1011.6
20260510041621 74 126 0.0 5.0 0.00 0.02 0.02 54 1009.9
20260510041510 50 84 0.0 0.0 0.00 0.00 0.00 70 1011.6
20260510041005 51 84 0.0 0.0 0.00 0.00 0.00 70 1011.4
20260510040504 51 84 0.0 0.0 0.00 0.00 0.00 69 1011.3
20260510040019 74 123 3.0 6.0 0.00 0.02 0.02 53 1009.7
20260510040016 51 84 0.0 0.0 0.00 0.00 0.00 69 1011.3
20260510035504 51 84 0.0 0.0 0.00 0.00 0.00 68 1011.3
20260510035008 51 84 0.0 0.0 0.00 0.00 0.00 68 1011.3
20260510034525 74 137 0.0 2.0 0.00 0.02 0.02 52 1009.6
20260510034520 51 84 0.0 0.0 0.00 0.00 0.00 69 1011.2
20260510034009 52 84 0.0 0.0 0.00 0.00 0.00 69 1011.2
20260510033506 52 84 0.0 0.0 0.00 0.00 0.00 70 1011.1
20260510033026 53 84 0.0 0.0 0.00 0.00 0.00 69 1011.0
20260510033020 74 113 3.0 4.0 0.00 0.02 0.02 50 1009.5
20260510032507 53 84 0.0 0.0 0.00 0.00 0.00 67 1011.0
20260510032009 53 84 0.0 0.0 0.00 0.00 0.00 66 1011.0
20260510031512 75 124 0.0 1.0 0.00 0.02 0.02 49 1009.6
20260510031510 53 84 0.0 1.0 0.00 0.00 0.00 63 1010.9
20260510031004 53 84 0.0 1.0 0.00 0.00 0.00 62 1011.0
20260510030503 53 84 0.0 0.0 0.00 0.00 0.00 60 1010.9
20260510030021 75 124 1.0 2.0 0.00 0.02 0.02 49 1009.4
20260510030016 54 84 0.0 1.0 0.00 0.00 0.00 62 1010.8
20260510025506 54 84 0.0 1.0 0.00 0.00 0.00 61 1010.7
20260510025004 55 84 0.0 1.0 0.00 0.00 0.00 59 1010.6
20260510024520 55 84 0.0 1.0 0.00 0.00 0.00 55 1010.5
20260510024508 76 124 0.0 1.0 0.00 0.02 0.02 47 1009.3
20260510024004 55 84 0.0 1.0 0.00 0.00 0.00 53 1010.4
20260510023512 56 84 0.0 1.0 0.00 0.00 0.00 52 1010.3
20260510023024 56 84 0.0 2.0 0.00 0.00 0.00 51 1010.2
20260510023007 77 124 0.0 1.0 0.00 0.02 0.02 47 1009.1
20260510022507 56 73 0.0 3.0 0.00 0.00 0.00 51 1010.1
20260510022010 56 72 0.0 3.0 0.00 0.00 0.00 50 1009.9
20260510021529 56 61 0.0 2.0 0.00 0.00 0.00 51 1009.8
20260510021514 77 124 0.0 2.0 0.00 0.02 0.02 47 1008.9
20260510021007 57 63 0.0 1.0 0.00 0.00 0.00 52 1009.8
20260510020507 57 63 0.0 2.0 0.00 0.00 0.00 51 1009.6
20260510020012 57 64 0.0 3.0 0.00 0.00 0.00 51 1009.5
20260510020004 78 125 0.0 2.0 0.00 0.02 0.02 46 1008.7
20260510015505 57 44 1.0 3.0 0.00 0.00 0.00 48 1009.5
20260510015004 57 348 0.0 3.0 0.00 0.00 0.00 49 1009.3
20260510014517 58 338 0.0 4.0 0.00 0.00 0.00 48 1009.2
20260510014503 79 125 0.0 0.0 0.00 0.02 0.02 44 1008.5
20260510014005 58 60 0.0 4.0 0.00 0.00 0.00 49 1009.1
20260510013508 58 56 1.0 4.0 0.00 0.00 0.00 49 1009.0
20260510013024 58 72 0.0 2.0 0.00 0.00 0.00 50 1008.8
20260510013003 80 105 0.0 0.0 0.00 0.02 0.02 41 1008.3
20260510012508 58 72 0.0 2.0 0.00 0.00 0.00 48 1008.7
20260510012008 59 63 0.0 4.0 0.00 0.00 0.00 47 1008.5
20260510011559 82 107 0.0 1.0 0.00 0.02 0.02 39 1008.3
20260510011526 59 54 0.0 6.0 0.00 0.00 0.00 46 1008.3
20260510011008 59 44 0.0 6.0 0.00 0.00 0.00 47 1008.1
20260510010509 60 72 1.0 4.0 0.00 0.00 0.00 45 1008.0
20260510010057 84 103 0.0 1.0 0.00 0.02 0.02 37 1008.3
20260510010026 60 69 2.0 6.0 0.00 0.00 0.00 44 1008.1
20260510005509 60 54 2.0 7.0 0.00 0.00 0.00 43 1007.8
20260510005008 61 69 2.0 9.0 0.00 0.00 0.00 43 1007.7
20260510004555 85 96 0.0 3.0 0.00 0.02 0.02 36 1008.2
20260510004515 62 51 3.0 9.0 0.00 0.00 0.00 42 1007.5
20260510004005 64 74 2.0 7.0 0.00 0.00 0.00 40 1007.5
20260510003505 66 40 3.0 10.0 0.00 0.00 0.00 38 1007.3
20260510003104 86 98 1.0 3.0 0.00 0.02 0.02 35 1008.1
20260510003024 69 59 3.0 14.0 0.00 0.00 0.00 35 1007.2
20260510002505 70 278 7.0 14.0 0.00 0.00 0.00 33 1006.7
20260510002008 70 307 5.0 12.0 0.00 0.00 0.00 33 1006.6
20260510001552 87 105 3.0 6.0 0.00 0.02 0.02 34 1008.0
20260510001524 70 297 6.0 11.0 0.00 0.00 0.00 33 1006.6
20260510001007 70 319 2.0 11.0 0.00 0.00 0.00 33 1006.5
20260510000508 70 292 3.0 11.0 0.00 0.00 0.00 34 1006.3
20260510000048 89 121 0.0 4.0 0.00 0.02 0.02 32 1008.0
20260510000024 70 288 5.0 11.0 0.00 0.00 0.00 33 1006.2
20260509235510 71 242 5.0 15.0 0.00 0.00 0.00 33 1006.2
20260509235008 71 294 4.0 15.0 0.00 0.00 0.00 33 1006.1
20260509234546 92 104 0.0 2.0 0.00 0.02 0.02 23 1008.0
20260509234528 71 281 6.0 14.0 0.00 0.00 0.00 33 1006.0
20260509234010 71 157 4.0 14.0 0.00 0.00 0.00 32 1005.9
20260509233504 71 261 4.0 14.0 0.00 0.00 0.00 32 1005.9
20260509233043 93 81 0.0 1.0 0.00 0.02 0.02 27 1008.0
20260509233023 71 277 4.0 13.0 0.00 0.00 0.00 31 1005.7
20260509232510 72 330 4.0 14.0 0.00 0.00 0.00 32 1005.7
20260509232005 72 236 5.0 14.0 0.00 0.00 0.00 31 1005.7
20260509231642 92 81 0.0 2.0 0.00 0.02 0.02 27 1008.0
20260509231523 72 334 7.0 13.0 0.00 0.00 0.00 31 1005.6
20260509231007 72 275 6.0 18.0 0.00 0.00 0.00 31 1005.6
20260509230510 72 275 8.0 18.0 0.00 0.00 0.00 30 1005.4
20260509230047 95 110 0.0 2.0 0.00 0.02 0.02 23 1008.0
20260509230024 72 350 5.0 13.0 0.00 0.00 0.00 31 1005.4
20260509225508 72 286 2.0 13.0 0.00 0.00 0.00 32 1005.3
20260509225009 72 336 4.0 13.0 0.00 0.00 0.00 31 1005.3
20260509224546 94 122 0.0 2.0 0.00 0.02 0.02 23 1008.0
20260509224532 72 278 5.0 18.0 0.00 0.00 0.00 31 1005.2
20260509224005 72 321 9.0 18.0 0.00 0.00 0.00 31 1005.1
20260509223504 72 288 11.0 18.0 0.00 0.00 0.00 31 1005.3
20260509223031 94 265 0.0 5.0 0.00 0.02 0.02 27 1008.0
20260509223016 72 278 7.0 15.0 0.00 0.00 0.00 30 1005.0
20260509222507 73 248 6.0 16.0 0.00 0.00 0.00 31 1005.1
20260509222006 73 352 5.0 18.0 0.00 0.00 0.00 31 1005.0
20260509221530 92 332 0.0 0.0 0.00 0.02 0.02 27 1008.1
20260509221521 73 313 7.0 18.0 0.00 0.00 0.00 31 1005.0
20260509221011 73 266 4.0 21.0 0.00 0.00 0.00 30 1004.9
20260509220505 73 184 9.0 21.0 0.00 0.00 0.00 30 1004.9
20260509220025 91 259 0.0 4.0 0.00 0.02 0.02 28 1008.1
20260509220003 73 281 9.0 21.0 0.00 0.00 0.00 29 1004.8
20260509215504 73 279 13.0 21.0 0.00 0.00 0.00 28 1004.8
20260509215006 73 280 9.0 21.0 0.00 0.00 0.00 27 1004.6
20260509214524 90 306 1.0 6.0 0.00 0.02 0.02 27 1008.1
20260509214507 73 272 12.0 21.0 0.00 0.00 0.00 26 1004.6
20260509214004 74 311 9.0 19.0 0.00 0.00 0.00 28 1004.3
20260509213504 74 318 9.0 20.0 0.00 0.00 0.00 29 1004.3
20260509213022 92 298 1.0 4.0 0.00 0.02 0.02 27 1008.2
20260509213012 73 267 13.0 20.0 0.00 0.00 0.00 29 1004.3
20260509212504 74 229 10.0 19.0 0.00 0.00 0.00 29 1004.3
20260509212010 74 267 8.0 19.0 0.00 0.00 0.00 29 1004.2
20260509211518 91 188 0.0 3.0 0.00 0.02 0.02 28 1008.5
20260509211516 74 273 7.0 19.0 0.00 0.00 0.00 30 1004.1
20260509211007 74 296 10.0 23.0 0.00 0.00 0.00 30 1004.1
20260509210512 74 279 4.0 23.0 0.00 0.00 0.00 31 1004.0
20260509210022 73 234 7.0 30.0 0.00 0.00 0.00 30 1004.0
20260509210018 91 134 0.0 4.0 0.00 0.02 0.02 30 1008.7
20260509205503 73 298 8.0 30.0 0.00 0.00 0.00 30 1003.9
20260509205003 73 240 12.0 20.0 0.00 0.00 0.00 30 1003.9
20260509204514 91 264 0.0 5.0 0.00 0.02 0.02 31 1008.9
20260509204504 74 287 10.0 25.0 0.00 0.00 0.00 29 1003.9
20260509204004 74 271 10.0 25.0 0.00 0.00 0.00 30 1003.9
20260509203503 74 277 12.0 23.0 0.00 0.00 0.00 30 1003.9
20260509203017 74 267 13.0 21.0 0.00 0.00 0.00 30 1003.9
20260509203013 91 263 0.0 2.0 0.00 0.02 0.02 33 1009.2
20260509202503 73 223 10.0 19.0 0.00 0.00 0.00 30 1003.9
20260509202011 73 305 11.0 24.0 0.00 0.00 0.00 30 1003.9
20260509201513 73 240 13.0 24.0 0.00 0.00 0.00 30 1003.9
20260509201509 92 91 0.0 1.0 0.00 0.02 0.02 33 1009.3
20260509201005 73 284 9.0 20.0 0.00 0.00 0.00 31 1003.9
20260509200506 73 217 11.0 22.0 0.00 0.00 0.00 30 1004.0
20260509200019 72 242 10.0 22.0 0.00 0.00 0.00 30 1004.1
20260509200006 90 99 0.0 2.0 0.00 0.02 0.02 32 1009.6
20260509195508 73 286 12.0 23.0 0.00 0.00 0.00 30 1004.2
20260509195007 72 273 10.0 23.0 0.00 0.00 0.00 31 1004.2
20260509194505 73 263 9.0 21.0 0.00 0.00 0.00 31 1004.2
20260509194502 90 210 0.0 1.0 0.00 0.02 0.02 33 1009.9
20260509194005 73 262 8.0 20.0 0.00 0.00 0.00 30 1004.2
20260509193503 73 241 11.0 24.0 0.00 0.00 0.00 29 1004.2
20260509193100 89 330 0.0 4.0 0.00 0.02 0.02 35 1010.0
20260509193008 73 234 10.0 24.0 0.00 0.00 0.00 30 1004.3
20260509192503 73 263 7.0 15.0 0.00 0.00 0.00 31 1004.4
20260509192008 73 273 6.0 15.0 0.00 0.00 0.00 30 1004.3
20260509191556 88 309 0.0 5.0 0.00 0.02 0.02 35 1010.1
20260509191512 73 243 4.0 20.0 0.00 0.00 0.00 30 1004.3
20260509191008 73 277 5.0 20.0 0.00 0.00 0.00 30 1004.2
20260509190504 72 303 7.0 24.0 0.00 0.00 0.00 29 1004.0
20260509190055 88 256 2.0 6.0 0.00 0.02 0.02 33 1010.5
20260509190018 72 227 10.0 24.0 0.00 0.00 0.00 29 1004.2
20260509185504 73 250 8.0 16.0 0.00 0.00 0.00 29 1004.1
20260509185014 73 272 8.0 17.0 0.00 0.00 0.00 29 1004.0
20260509184550 86 259 0.0 5.0 0.00 0.02 0.02 37 1010.4
20260509184530 73 248 6.0 17.0 0.00 0.00 0.00 29 1003.9
20260509184012 72 202 9.0 15.0 0.00 0.00 0.00 31 1004.0
20260509183514 72 278 6.0 15.0 0.00 0.00 0.00 31 1003.9
20260509183046 85 258 0.0 5.0 0.00 0.02 0.02 41 1010.5
20260509183010 72 275 5.0 18.0 0.00 0.00 0.00 31 1003.9
20260509182503 71 227 4.0 18.0 0.00 0.00 0.00 31 1004.0
20260509182005 71 277 7.0 19.0 0.00 0.00 0.00 31 1004.0
20260509181603 84 267 2.0 10.0 0.00 0.02 0.02 41 1010.7
20260509181509 71 252 6.0 19.0 0.00 0.00 0.00 30 1003.9
20260509181007 71 273 8.0 20.0 0.00 0.00 0.00 31 1004.3
20260509180505 71 265 8.0 20.0 0.00 0.00 0.00 31 1004.2
20260509180105 84 330 1.0 7.0 0.00 0.02 0.02 41 1010.9
20260509180016 71 261 8.0 14.0 0.00 0.00 0.00 31 1004.1
20260509175506 70 278 4.0 13.0 0.00 0.00 0.00 31 1004.3
20260509175004 70 269 6.0 14.0 0.00 0.00 0.00 31 1004.3
20260509174534 84 277 3.0 9.0 0.00 0.03 0.02 44 1011.0
20260509174520 70 295 7.0 17.0 0.00 0.00 0.00 31 1004.2
20260509174005 70 298 7.0 19.0 0.00 0.00 0.00 31 1004.2
20260509173506 70 263 8.0 19.0 0.00 0.00 0.00 31 1004.3
20260509173040 83 264 3.0 8.0 0.00 0.03 0.02 46 1011.1
20260509173023 70 281 8.0 19.0 0.00 0.00 0.00 33 1004.3
20260509172507 71 246 9.0 19.0 0.00 0.00 0.00 34 1004.4
20260509172003 71 269 7.0 16.0 0.00 0.00 0.00 35 1004.3
20260509171528 82 293 4.0 7.0 0.00 0.03 0.02 45 1011.4
20260509171509 71 288 6.0 16.0 0.00 0.00 0.00 38 1004.3
20260509171004 70 221 5.0 16.0 0.00 0.00 0.00 40 1004.4
20260509170504 70 265 11.0 15.0 0.00 0.00 0.00 39 1004.3
20260509170039 82 285 3.0 8.0 0.00 0.03 0.02 44 1011.5
20260509170013 69 271 5.0 12.0 0.00 0.00 0.00 44 1004.5
20260509165504 69 250 3.0 13.0 0.00 0.00 0.00 52 1004.5
20260509165004 69 221 5.0 14.0 0.00 0.00 0.00 52 1004.5
20260509164522 81 297 4.0 9.0 0.00 0.03 0.02 41 1011.7
20260509164519 68 207 5.0 14.0 0.00 0.00 0.00 53 1004.5
20260509164006 68 206 6.0 11.0 0.00 0.00 0.00 52 1004.4
20260509163513 68 218 4.0 15.0 0.00 0.00 0.00 52 1004.4
20260509163024 81 313 2.0 7.0 0.00 0.03 0.02 41 1011.8
20260509163022 68 225 6.0 15.0 0.00 0.00 0.00 54 1004.6
20260509162512 67 271 2.0 13.0 0.00 0.00 0.00 56 1004.5
20260509162011 67 277 7.0 13.0 0.00 0.00 0.00 56 1004.4
20260509161525 67 222 6.0 12.0 0.00 0.00 0.00 56 1004.6
20260509161514 80 269 5.0 9.0 0.00 0.03 0.02 42 1011.8
20260509161010 66 231 4.0 12.0 0.00 0.00 0.00 57 1004.6
20260509160504 66 274 4.0 9.0 0.00 0.00 0.00 59 1004.6
20260509160012 66 288 3.0 9.0 0.00 0.00 0.00 60 1004.5
20260509160010 80 278 2.0 8.0 0.00 0.03 0.02 39 1011.8
20260509155503 66 186 4.0 9.0 0.00 0.00 0.00 61 1004.4
20260509155004 65 202 5.0 9.0 0.00 0.00 0.00 61 1004.4
20260509154520 65 225 4.0 12.0 0.00 0.00 0.00 62 1004.4
20260509154508 79 276 3.0 7.0 0.00 0.03 0.02 16 1011.9
20260509154007 65 273 6.0 12.0 0.00 0.00 0.00 62 1004.4
20260509153507 64 171 5.0 13.0 0.00 0.00 0.00 62 1004.5
20260509153019 64 207 6.0 13.0 0.00 0.00 0.00 63 1004.5
20260509153004 78 290 2.0 6.0 0.00 0.03 0.02 19 1011.9
20260509152507 64 254 6.0 11.0 0.00 0.00 0.00 64 1004.3
20260509152006 64 234 5.0 11.0 0.00 0.00 0.00 66 1004.4
20260509151614 77 293 3.0 7.0 0.00 0.03 0.02 17 1011.8
20260509151526 63 237 4.0 12.0 0.00 0.00 0.00 67 1004.5
20260509151007 63 188 6.0 12.0 0.00 0.00 0.00 66 1004.5
20260509150510 63 214 5.0 11.0 0.00 0.00 0.00 67 1004.5
20260509150056 77 277 3.0 7.0 0.00 0.03 0.02 18 1011.8
20260509150027 63 252 3.0 12.0 0.00 0.00 0.00 67 1004.5
20260509145505 62 235 4.0 12.0 0.00 0.00 0.00 68 1004.5
20260509145004 62 217 5.0 14.0 0.00 0.00 0.00 69 1004.6
20260509144552 76 298 5.0 7.0 0.00 0.03 0.02 20 1011.7
20260509144512 62 244 7.0 14.0 0.00 0.00 0.00 69 1004.5
20260509144003 62 234 4.0 12.0 0.00 0.00 0.00 71 1004.5
20260509143503 61 232 5.0 13.0 0.00 0.00 0.00 71 1004.5
20260509143057 75 289 3.0 7.0 0.00 0.03 0.02 20 1011.8
20260509143021 61 194 5.0 13.0 0.00 0.00 0.00 72 1004.5
20260509142508 61 257 7.0 11.0 0.00 0.00 0.00 72 1004.5
20260509142007 61 254 4.0 11.0 0.00 0.00 0.00 73 1004.5
20260509141546 75 289 4.0 7.0 0.00 0.03 0.02 25 1011.9
20260509141522 60 219 6.0 12.0 0.00 0.00 0.00 73 1004.5
20260509141007 60 263 5.0 12.0 0.00 0.00 0.00 73 1004.3
20260509140507 60 205 4.0 12.0 0.00 0.00 0.00 73 1004.3
20260509140039 74 283 3.0 6.0 0.00 0.03 0.02 26 1011.9
20260509140026 60 208 6.0 16.0 0.00 0.00 0.00 73 1004.4
20260509135514 60 260 5.0 16.0 0.00 0.00 0.00 73 1004.5
20260509135012 60 192 4.0 10.0 0.00 0.00 0.00 75 1004.4
20260509134534 73 269 0.0 4.0 0.00 0.03 0.02 31 1012.0
20260509134526 60 259 3.0 10.0 0.00 0.00 0.00 76 1004.2
20260509134003 59 188 4.0 11.0 0.00 0.00 0.00 77 1004.0
20260509133505 59 188 3.0 12.0 0.00 0.00 0.00 78 1004.0
20260509133029 72 281 1.0 4.0 0.00 0.03 0.02 35 1011.7
20260509133017 58 178 4.0 12.0 0.00 0.00 0.00 80 1004.2
20260509132507 58 191 4.0 15.0 0.00 0.00 0.00 80 1004.2
20260509132007 58 250 5.0 15.0 0.00 0.00 0.00 81 1004.5
20260509131529 71 259 0.0 2.0 0.00 0.03 0.02 36 1011.3
20260509131519 57 231 7.0 15.0 0.00 0.00 0.00 82 1004.6
20260509131008 57 227 7.0 14.0 0.00 0.00 0.00 83 1004.6
20260509130507 57 271 6.0 12.0 0.00 0.00 0.00 84 1004.5
20260509130046 56 274 3.0 11.0 0.00 0.00 0.00 85 1004.4
20260509130025 71 272 1.0 4.0 0.00 0.03 0.02 36 1011.1
20260509125505 56 244 4.0 11.0 0.00 0.00 0.00 85 1004.4
20260509125007 56 205 6.0 11.0 0.00 0.00 0.00 87 1004.4
20260509124531 55 225 4.0 10.0 0.00 0.00 0.00 87 1004.3
20260509124520 70 333 0.0 5.0 0.00 0.03 0.02 39 1010.6
20260509124004 55 212 4.0 15.0 0.00 0.00 0.00 88 1004.3
20260509123504 54 207 5.0 15.0 0.00 0.00 0.00 88 1004.3
20260509123017 68 41 1.0 5.0 0.00 0.03 0.02 41 1010.3
20260509123013 54 202 3.0 12.0 0.00 0.00 0.00 89 1004.2
20260509122503 54 210 5.0 12.0 0.00 0.00 0.00 89 1004.3
20260509122007 54 284 3.0 10.0 0.00 0.00 0.00 89 1004.2
20260509121520 54 219 3.0 11.0 0.00 0.00 0.00 89 1004.2
20260509121514 68 347 0.0 5.0 0.00 0.03 0.02 42 1010.2
20260509121007 53 232 5.0 11.0 0.00 0.00 0.00 90 1004.2
20260509120507 53 223 2.0 10.0 0.00 0.00 0.00 90 1004.2
20260509120030 53 246 4.0 10.0 0.00 0.00 0.00 90 1004.2
20260509120019 0 0.0 0.0 0.00 0.03 0.02 1010.0
20260509115505 53 207 2.0 10.0 0.00 0.00 0.00 90 1004.2
20260509115005 53 200 4.0 7.0 0.00 0.00 0.00 90 1004.2
20260509114605 0 0.0 0.0 0.00 0.03 0.02 1010.0
20260509114507 53 207 3.0 7.0 0.00 0.00 0.00 90 1004.1
20260509114004 53 186 2.0 9.0 0.00 0.00 0.00 90 1004.0
20260509113504 53 221 4.0 9.0 0.00 0.00 0.00 89 1004.0
20260509113101 0 0.0 0.0 0.00 0.03 0.02 1009.8
20260509113011 53 179 2.0 6.0 0.00 0.00 0.00 89 1004.0
20260509112503 53 180 2.0 7.0 0.00 0.00 0.00 89 1004.0
20260509112003 53 205 2.0 7.0 0.00 0.00 0.00 89 1003.9
20260509111559 0 270 1.0 5.0 0.00 0.03 0.02 41 1009.2
20260509111515 53 197 1.0 7.0 0.00 0.00 0.00 89 1003.9
20260509111004 53 212 1.0 7.0 0.00 0.00 0.00 89 1003.9
20260509110508 53 227 3.0 12.0 0.00 0.00 0.00 89 1004.0
20260509110052 69 270 1.0 5.0 0.00 0.03 0.02 41 1009.1
20260509110024 53 238 3.0 12.0 0.00 0.00 0.00 89 1003.9
20260509105508 53 238 2.0 7.0 0.00 0.00 0.00 89 1003.6
20260509105008 53 170 2.0 7.0 0.00 0.00 0.00 89 1003.6
20260509104606 68 245 1.0 7.0 0.00 0.03 0.02 42 1008.8
20260509104524 53 165 3.0 8.0 0.00 0.00 0.00 89 1003.7
20260509104009 53 210 3.0 8.0 0.00 0.00 0.00 89 1003.6
20260509103510 53 188 2.0 8.0 0.00 0.00 0.00 89 1003.6
20260509103053 68 254 1.0 6.0 0.00 0.03 0.02 44 1008.2
20260509103014 53 237 3.0 8.0 0.00 0.00 0.00 89 1003.6
20260509102505 53 205 2.0 6.0 0.00 0.00 0.00 89 1003.5
20260509102004 53 187 3.0 6.0 0.00 0.00 0.00 89 1003.5
20260509101544 68 172 1.0 6.0 0.00 0.03 0.02 44 1008.4
20260509101515 53 205 2.0 6.0 0.00 0.00 0.00 89 1003.4
20260509101004 53 217 3.0 6.0 0.00 0.00 0.00 89 1003.5
20260509100503 53 208 1.0 6.0 0.00 0.00 0.00 89 1003.6
20260509100040 67 190 0.0 4.0 0.00 0.03 0.02 44 1009.7
20260509100022 53 182 2.0 6.0 0.00 0.00 0.00 89 1003.7
20260509095508 53 210 2.0 6.0 0.00 0.00 0.00 89 1003.8
20260509095010 53 213 1.0 6.0 0.00 0.00 0.00 89 1003.9
20260509094538 67 208 0.0 1.0 0.00 0.03 0.02 44 1010.0
20260509094521 53 163 2.0 6.0 0.00 0.00 0.00 89 1004.0
20260509094007 53 212 2.0 6.0 0.00 0.00 0.00 89 1004.2
20260509093508 53 157 2.0 7.0 0.00 0.00 0.00 89 1004.2
20260509093034 67 186 0.0 14.0 0.01 0.03 0.02 44 1009.8
20260509093024 53 217 2.0 8.0 0.00 0.00 0.00 89 1004.3
20260509092516 53 259 3.0 8.0 0.00 0.00 0.00 89 1004.3
20260509092003 53 209 2.0 10.0 0.00 0.00 0.00 89 1004.3
20260509091531 67 116 3.0 5.0 0.02 0.03 0.02 44 1009.7
20260509091510 53 199 3.0 10.0 0.00 0.00 0.00 89 1004.4
20260509091004 53 227 3.0 9.0 0.00 0.00 0.00 89 1004.4
20260509090504 53 231 2.0 6.0 0.00 0.00 0.00 88 1004.3
20260509090032 67 158 1.0 3.0 0.02 0.03 0.02 43 1010.2
20260509090018 53 203 3.0 6.0 0.00 0.00 0.00 88 1004.2
20260509085506 53 234 3.0 6.0 0.00 0.00 0.00 88 1004.2
20260509085006 53 174 3.0 9.0 0.00 0.00 0.00 88 1004.4
20260509084527 53 236 3.0 9.0 0.00 0.00 0.00 88 1004.4
20260509084522 67 257 0.0 1.0 0.02 0.03 0.02 43 1011.6
20260509084011 53 172 2.0 9.0 0.00 0.00 0.00 87 1004.5
20260509083506 53 182 2.0 7.0 0.00 0.00 0.00 87 1004.5
20260509083033 53 215 2.0 7.0 0.00 0.00 0.00 87 1004.4
20260509083020 67 58 0.0 0.0 0.01 0.02 0.01 43 1011.8
20260509082511 53 204 1.0 7.0 0.00 0.00 0.00 87 1004.4
20260509082010 53 222 2.0 8.0 0.00 0.00 0.00 87 1004.4
20260509081529 53 180 2.0 8.0 0.00 0.00 0.00 86 1004.3
20260509081524 67 58 0.0 3.0 0.00 0.01 0.00 43 1012.4
20260509081008 53 198 2.0 6.0 0.00 0.00 0.00 86 1004.3
20260509080504 53 244 2.0 5.0 0.00 0.00 0.00 86 1004.4
20260509080014 67 330 3.0 8.0 0.00 0.01 0.00 44 1012.9
20260509080012 53 233 2.0 7.0 0.00 0.00 0.00 86 1004.4
20260509075504 53 221 2.0 7.0 0.00 0.00 0.00 85 1004.4
20260509075006 54 186 1.0 7.0 0.00 0.00 0.00 85 1004.5
20260509074518 54 240 2.0 7.0 0.00 0.00 0.00 85 1004.5
20260509074512 67 312 2.0 7.0 0.00 0.01 0.00 44 1012.8
20260509074007 54 209 2.0 5.0 0.00 0.00 0.00 85 1004.6
20260509073508 54 177 1.0 6.0 0.00 0.00 0.00 84 1004.7
20260509073023 66 2 0.0 4.0 0.00 0.01 0.00 44 1013.1
20260509072508 54 224 2.0 7.0 0.00 0.00 0.00 84 1004.7
20260509072009 54 200 1.0 7.0 0.00 0.00 0.00 84 1004.7
20260509071524 54 199 2.0 7.0 0.00 0.00 0.00 84 1004.8
20260509071506 66 307 0.0 2.0 0.00 0.01 0.00 44 1013.0
20260509071010 55 196 1.0 5.0 0.00 0.00 0.00 83 1004.9
20260509070506 55 212 3.0 9.0 0.00 0.00 0.00 83 1004.9
20260509070028 55 234 4.0 9.0 0.00 0.00 0.00 83 1005.2
20260509070003 64 307 0.0 3.0 0.00 0.01 0.00 40 1012.5
20260509065507 55 225 2.0 7.0 0.00 0.00 0.00 83 1005.2
20260509065004 55 227 2.0 8.0 0.00 0.00 0.00 83 1005.3
20260509064602 65 148 0.0 0.0 0.00 0.01 0.00 40 1011.3
20260509064520 55 222 2.0 8.0 0.00 0.00 0.00 82 1005.3
20260509064003 55 209 3.0 9.0 0.00 0.00 0.00 82 1005.4
20260509063503 55 249 3.0 9.0 0.00 0.00 0.00 82 1005.4
20260509063110 65 148 0.0 0.0 0.00 0.01 0.00 40 1010.9
20260509063019 55 208 4.0 8.0 0.00 0.00 0.00 82 1005.4
20260509062511 56 186 3.0 11.0 0.00 0.00 0.00 82 1005.5
20260509062008 56 220 4.0 11.0 0.00 0.00 0.00 82 1005.5
20260509061615 65 148 0.0 0.0 0.00 0.01 0.00 40 1011.5
20260509061525 56 242 4.0 9.0 0.00 0.00 0.00 81 1005.5
20260509061010 56 232 3.0 10.0 0.00 0.00 0.00 81 1005.5
20260509060508 56 212 4.0 10.0 0.00 0.00 0.00 81 1005.6
20260509060058 65 148 0.0 0.0 0.00 0.01 0.00 37 1011.6
20260509060025 56 212 3.0 10.0 0.00 0.00 0.00 81 1005.6
20260509055506 56 198 4.0 12.0 0.00 0.00 0.00 81 1005.7
20260509055008 56 233 5.0 12.0 0.00 0.00 0.00 81 1005.7
20260509054546 65 148 0.0 0.0 0.00 0.01 0.00 37 1011.5
20260509054528 57 216 2.0 9.0 0.00 0.00 0.00 80 1005.7
20260509054008 57 214 3.0 10.0 0.00 0.00 0.00 80 1005.7
20260509053504 57 195 4.0 10.0 0.00 0.00 0.00 80 1005.7
20260509053044 65 149 0.0 0.0 0.00 0.01 0.00 37 1011.3
20260509053022 57 219 4.0 9.0 0.00 0.00 0.00 79 1005.7
20260509052504 57 181 3.0 9.0 0.00 0.00 0.00 79 1005.8
20260509052008 57 190 5.0 9.0 0.00 0.00 0.00 78 1005.8
20260509051541 66 149 0.0 0.0 0.00 0.01 0.00 37 1011.1
20260509051523 58 200 2.0 8.0 0.00 0.00 0.00 77 1005.8
20260509051007 58 163 2.0 7.0 0.00 0.00 0.00 77 1005.6
20260509050508 58 226 1.0 8.0 0.00 0.00 0.00 76 1005.7
20260509050039 58 179 2.0 10.0 0.00 0.00 0.00 76 1005.7
20260509050034 67 149 0.0 0.0 0.00 0.01 0.00 37 1011.0